Time,TemperatureF,DewpointF,PressureIn,WindDirection,WindDirectionDegrees,WindSpeedMPH,WindSpeedGustMPH,Humidity,HourlyPrecipIn,Conditions,Clouds,dailyrainin,SoftwareType,DateUTC
2013-04-08 00:02:00,32.0,31.0,29.79,ENE,58,1.0,3.0,96,0.00,,,0.00,,2013-04-08 05:02:00,
2013-04-08 00:12:00,32.0,31.0,29.79,ENE,58,1.0,3.0,96,0.00,,,0.00,,2013-04-08 05:12:00,
2013-04-08 00:22:00,32.0,31.0,29.79,ENE,58,1.0,3.0,96,0.00,,,0.00,,2013-04-08 05:22:00,
2013-04-08 00:32:00,32.0,31.0,29.80,ENE,60,0.0,2.0,96,0.00,,,0.00,,2013-04-08 05:32:00,
2013-04-08 00:42:00,32.0,31.0,29.80,ENE,60,0.0,2.0,96,0.00,,,0.00,,2013-04-08 05:42:00,
2013-04-08 00:52:00,32.0,31.0,29.80,NE,53,0.0,1.0,96,0.00,,,0.00,,2013-04-08 05:52:00,
2013-04-08 01:02:00,32.0,31.0,29.80,NE,38,0.0,3.0,96,0.00,,,0.00,,2013-04-08 06:02:00,
2013-04-08 01:12:00,32.0,31.0,29.80,NE,38,0.0,3.0,96,0.00,,,0.00,,2013-04-08 06:12:00,
2013-04-08 01:22:00,32.0,31.0,29.81,NNE,32,1.0,4.0,96,0.00,,,0.00,,2013-04-08 06:22:00,
2013-04-08 01:32:00,32.0,31.0,29.81,NE,36,0.0,2.0,96,0.00,,,0.00,,2013-04-08 06:32:00,
2013-04-08 01:42:00,32.0,31.0,29.81,NE,36,0.0,2.0,96,0.00,,,0.00,,2013-04-08 06:42:00,
2013-04-08 01:52:00,32.0,31.0,29.82,NNE,31,0.0,2.0,96,0.00,,,0.00,,2013-04-08 06:52:00,
2013-04-08 02:02:00,32.0,31.0,29.82,NNE,24,2.0,4.0,96,0.00,,,0.00,,2013-04-08 07:02:00,
2013-04-08 02:12:00,32.0,31.0,29.82,NNE,24,2.0,4.0,96,0.00,,,0.00,,2013-04-08 07:12:00,
2013-04-08 02:22:00,32.0,31.0,29.82,NNE,19,0.0,3.0,96,0.00,,,0.00,,2013-04-08 07:22:00,
2013-04-08 02:33:00,32.0,31.0,29.82,NNE,19,0.0,3.0,96,0.00,,,0.00,,2013-04-08 07:33:00,
2013-04-08 02:42:00,32.0,31.0,29.82,NNE,19,0.0,3.0,96,0.00,,,0.00,,2013-04-08 07:42:00,
2013-04-08 02:52:00,31.0,30.0,29.82,NE,36,3.0,5.0,96,0.00,,,0.00,,2013-04-08 07:52:00,
2013-04-08 03:02:00,31.0,30.0,29.82,ENE,59,3.0,6.0,96,0.00,,,0.00,,2013-04-08 08:02:00,
2013-04-08 03:12:00,31.0,30.0,29.82,ENE,59,3.0,6.0,96,0.00,,,0.00,,2013-04-08 08:12:00,
2013-04-08 03:22:00,31.0,30.0,29.82,ENE,59,3.0,6.0,96,0.00,,,0.00,,2013-04-08 08:22:00,
2013-04-08 03:32:00,31.0,30.0,29.82,NNW,341,2.0,6.0,96,0.00,,,0.00,,2013-04-08 08:32:00,
2013-04-08 03:42:00,31.0,30.0,29.82,NNE,30,3.0,7.0,95,0.00,,,0.00,,2013-04-08 08:42:00,
2013-04-08 03:52:00,31.0,30.0,29.83,NNE,30,3.0,7.0,95,0.00,,,0.00,,2013-04-08 08:52:00,
2013-04-08 04:02:00,31.0,30.0,29.82,NNE,20,2.0,5.0,95,0.00,,,0.00,,2013-04-08 09:02:00,
2013-04-08 04:12:00,31.0,30.0,29.82,NNW,331,3.0,7.0,95,0.00,,,0.00,,2013-04-08 09:12:00,
2013-04-08 04:22:00,31.0,30.0,29.82,NNW,331,3.0,7.0,95,0.00,,,0.00,,2013-04-08 09:22:00,
2013-04-08 04:33:00,31.0,30.0,29.82,North,1,5.0,9.0,95,0.00,,,0.00,,2013-04-08 09:33:00,
2013-04-08 04:43:00,31.0,30.0,29.82,North,1,5.0,9.0,95,0.00,,,0.00,,2013-04-08 09:43:00,
2013-04-08 04:53:00,31.0,30.0,29.83,NE,41,5.0,10.0,95,0.00,,,0.00,,2013-04-08 09:53:00,
2013-04-08 05:03:00,30.0,29.0,29.83,North,9,6.0,13.0,95,0.00,,,0.00,,2013-04-08 10:03:00,
2013-04-08 05:13:00,30.0,29.0,29.83,North,9,6.0,13.0,95,0.00,,,0.00,,2013-04-08 10:13:00,
2013-04-08 05:23:00,30.0,29.0,29.83,NNW,347,5.0,11.0,95,0.00,,,0.00,,2013-04-08 10:23:00,
2013-04-08 05:33:00,30.0,28.0,29.84,NW,321,6.0,11.0,94,0.00,,,0.00,,2013-04-08 10:33:00,
2013-04-08 05:42:00,30.0,28.0,29.84,NW,321,6.0,11.0,94,0.00,,,0.00,,2013-04-08 10:42:00,
2013-04-08 05:52:00,29.0,27.0,29.84,NNE,26,5.0,10.0,94,0.00,,,0.00,,2013-04-08 10:52:00,
2013-04-08 06:02:00,29.0,28.0,29.85,NNE,15,7.0,12.0,95,0.00,,,0.00,,2013-04-08 11:02:00,
2013-04-08 06:12:00,29.0,27.0,29.86,North,356,5.0,12.0,94,0.00,,,0.00,,2013-04-08 11:12:00,
2013-04-08 06:22:00,29.0,27.0,29.86,North,356,5.0,12.0,94,0.00,,,0.00,,2013-04-08 11:22:00,
2013-04-08 06:32:00,27.0,25.0,29.86,NW,311,5.0,14.0,93,0.00,,,0.00,,2013-04-08 11:32:00,
2013-04-08 06:42:00,27.0,25.0,29.86,NW,311,5.0,14.0,93,0.00,,,0.00,,2013-04-08 11:42:00,
2013-04-08 06:52:00,27.0,25.0,29.87,NNW,333,4.0,10.0,93,0.00,,,0.00,,2013-04-08 11:52:00,
2013-04-08 07:03:00,26.0,24.0,29.88,North,360,6.0,13.0,93,0.00,,,0.00,,2013-04-08 12:03:00,
2013-04-08 07:12:00,26.0,24.0,29.88,North,360,6.0,13.0,93,0.00,,,0.00,,2013-04-08 12:12:00,
2013-04-08 07:23:00,25.0,23.0,29.88,NNW,345,7.0,14.0,92,0.00,,,0.00,,2013-04-08 12:23:00,
2013-04-08 07:33:00,24.0,22.0,29.89,NW,319,6.0,15.0,91,0.00,,,0.00,,2013-04-08 12:33:00,
2013-04-08 07:42:00,24.0,22.0,29.89,NW,319,6.0,15.0,91,0.00,,,0.00,,2013-04-08 12:42:00,
2013-04-08 07:52:00,24.0,22.0,29.90,NNE,15,9.0,15.0,91,0.00,,,0.00,,2013-04-08 12:52:00,
2013-04-08 08:03:00,23.0,21.0,29.90,North,352,9.0,14.0,90,0.00,,,0.00,,2013-04-08 13:03:00,
2013-04-08 08:12:00,23.0,21.0,29.90,North,352,9.0,14.0,90,0.00,,,0.00,,2013-04-08 13:12:00,
2013-04-08 08:22:00,24.0,22.0,29.90,NNE,12,11.0,15.0,90,0.00,,,0.00,,2013-04-08 13:22:00,
2013-04-08 08:32:00,24.0,21.0,29.90,North,352,9.0,15.0,89,0.00,,,0.00,,2013-04-08 13:32:00,
2013-04-08 08:42:00,24.0,21.0,29.90,North,352,9.0,15.0,89,0.00,,,0.00,,2013-04-08 13:42:00,
2013-04-08 08:52:00,24.0,21.0,29.91,NE,46,9.0,17.0,88,0.00,,,0.00,,2013-04-08 13:52:00,
2013-04-08 09:02:00,24.0,21.0,29.92,NNE,13,10.0,16.0,87,0.00,,,0.00,,2013-04-08 14:02:00,
2013-04-08 09:12:00,24.0,21.0,29.92,NNE,13,10.0,16.0,87,0.00,,,0.00,,2013-04-08 14:12:00,
2013-04-08 09:22:00,23.0,19.0,29.92,North,11,12.0,20.0,85,0.00,,,0.00,,2013-04-08 14:22:00,
2013-04-08 09:32:00,23.0,19.0,29.91,North,8,12.0,19.0,85,0.00,,,0.00,,2013-04-08 14:32:00,
2013-04-08 09:42:00,23.0,19.0,29.91,NE,56,10.0,16.0,84,0.00,,,0.00,,2013-04-08 14:42:00,
2013-04-08 09:52:00,23.0,19.0,29.91,NE,56,10.0,16.0,84,0.00,,,0.00,,2013-04-08 14:52:00,
2013-04-08 10:02:00,23.0,18.0,29.92,North,351,11.0,17.0,82,0.00,,,0.00,,2013-04-08 15:02:00,
2013-04-08 10:12:00,24.0,20.0,29.93,North,11,9.0,16.0,83,0.00,,,0.00,,2013-04-08 15:12:00,
2013-04-08 10:22:00,24.0,20.0,29.93,North,11,9.0,16.0,83,0.00,,,0.00,,2013-04-08 15:22:00,
2013-04-08 10:33:00,24.0,19.0,29.93,North,356,9.0,19.0,81,0.00,,,0.00,,2013-04-08 15:33:00,
2013-04-08 10:43:00,24.0,19.0,29.93,North,356,9.0,19.0,81,0.00,,,0.00,,2013-04-08 15:43:00,
2013-04-08 10:52:00,25.0,20.0,29.94,North,8,9.0,16.0,82,0.00,,,0.00,,2013-04-08 15:52:00,
2013-04-08 11:03:00,25.0,20.0,29.95,North,356,9.0,16.0,80,0.00,,,0.00,,2013-04-08 16:03:00,
2013-04-08 11:13:00,25.0,20.0,29.95,North,356,9.0,16.0,80,0.00,,,0.00,,2013-04-08 16:13:00,
2013-04-08 11:23:00,24.0,19.0,29.96,North,11,9.0,15.0,80,0.00,,,0.00,,2013-04-08 16:23:00,
2013-04-08 11:32:00,24.0,19.0,29.96,North,11,9.0,15.0,80,0.00,,,0.00,,2013-04-08 16:32:00,
2013-04-08 11:42:00,24.0,19.0,29.97,North,349,13.0,19.0,80,0.00,,,0.00,,2013-04-08 16:42:00,
2013-04-08 11:53:00,24.0,19.0,29.97,NNE,29,8.0,17.0,81,0.00,,,0.00,,2013-04-08 16:53:00,
2013-04-08 12:03:00,24.0,19.0,29.97,NNE,21,9.0,18.0,80,0.00,,,0.00,,2013-04-08 17:03:00,
2013-04-08 12:12:00,25.0,20.0,29.98,NNE,26,12.0,20.0,80,0.00,,,0.00,,2013-04-08 17:12:00,
2013-04-08 12:22:00,25.0,20.0,29.98,NNE,26,12.0,20.0,80,0.00,,,0.00,,2013-04-08 17:22:00,
2013-04-08 12:32:00,25.0,19.0,29.99,NNE,27,11.0,20.0,79,0.00,,,0.00,,2013-04-08 17:32:00,
2013-04-08 12:43:00,25.0,19.0,29.99,NNE,27,11.0,20.0,79,0.00,,,0.00,,2013-04-08 17:43:00,
2013-04-08 12:52:00,25.0,20.0,30.01,North,1,10.0,21.0,80,0.00,,,0.00,,2013-04-08 17:52:00,
2013-04-08 13:02:00,25.0,20.0,30.01,North,351,11.0,20.0,81,0.00,,,0.00,,2013-04-08 18:02:00,
2013-04-08 13:12:00,25.0,20.0,30.01,North,351,11.0,20.0,81,0.00,,,0.00,,2013-04-08 18:12:00,
2013-04-08 13:23:00,26.0,21.0,30.02,North,8,11.0,17.0,80,0.00,,,0.00,,2013-04-08 18:23:00,
2013-04-08 13:32:00,25.0,19.0,30.03,NNW,333,9.0,20.0,79,0.00,,,0.00,,2013-04-08 18:32:00,
2013-04-08 13:42:00,25.0,20.0,30.04,North,360,8.0,17.0,80,0.00,,,0.00,,2013-04-08 18:42:00,
2013-04-08 13:52:00,25.0,20.0,30.04,North,360,8.0,17.0,80,0.00,,,0.00,,2013-04-08 18:52:00,
2013-04-08 14:02:00,26.0,21.0,30.05,NNE,27,9.0,16.0,80,0.00,,,0.00,,2013-04-08 19:02:00,
2013-04-08 14:12:00,26.0,21.0,30.05,NNE,27,9.0,16.0,80,0.00,,,0.00,,2013-04-08 19:12:00,
2013-04-08 14:23:00,26.0,20.0,30.05,NNE,20,11.0,17.0,79,0.00,,,0.00,,2013-04-08 19:23:00,
2013-04-08 14:33:00,25.0,19.0,30.06,NNW,335,11.0,18.0,79,0.00,,,0.00,,2013-04-08 19:33:00,
2013-04-08 14:42:00,25.0,20.0,30.06,North,350,8.0,18.0,80,0.00,,,0.00,,2013-04-08 19:42:00,
2013-04-08 14:52:00,25.0,20.0,30.06,North,350,8.0,18.0,80,0.00,,,0.00,,2013-04-08 19:52:00,
2013-04-08 15:02:00,26.0,21.0,30.07,NW,325,11.0,17.0,80,0.00,,,0.00,,2013-04-08 20:02:00,
2013-04-08 15:12:00,25.0,20.0,30.07,NNW,329,9.0,16.0,81,0.00,,,0.00,,2013-04-08 20:12:00,
2013-04-08 15:22:00,25.0,20.0,30.07,NNW,329,9.0,16.0,81,0.00,,,0.00,,2013-04-08 20:22:00,
2013-04-08 15:33:00,25.0,20.0,30.08,NW,308,11.0,19.0,81,0.00,,,0.00,,2013-04-08 20:33:00,
2013-04-08 15:43:00,25.0,20.0,30.08,NW,308,11.0,19.0,81,0.00,,,0.00,,2013-04-08 20:43:00,
2013-04-08 15:52:00,25.0,20.0,30.08,NW,325,9.0,18.0,80,0.00,,,0.00,,2013-04-08 20:52:00,
2013-04-08 16:02:00,26.0,21.0,30.09,NNW,347,10.0,21.0,80,0.00,,,0.00,,2013-04-08 21:02:00,
2013-04-08 16:12:00,26.0,21.0,30.09,NNW,347,10.0,21.0,80,0.00,,,0.00,,2013-04-08 21:12:00,
2013-04-08 16:22:00,25.0,20.0,30.09,NNW,331,11.0,23.0,80,0.00,,,0.00,,2013-04-08 21:22:00,
2013-04-08 16:32:00,25.0,20.0,30.09,NNE,20,11.0,26.0,80,0.00,,,0.00,,2013-04-08 21:32:00,
2013-04-08 16:43:00,25.0,20.0,30.09,NNE,20,11.0,26.0,80,0.00,,,0.00,,2013-04-08 21:43:00,
2013-04-08 16:52:00,24.0,19.0,30.10,NNW,335,9.0,19.0,82,0.00,,,0.00,,2013-04-08 21:52:00,
2013-04-08 17:03:00,25.0,20.0,30.11,NNW,335,10.0,18.0,81,0.00,,,0.00,,2013-04-08 22:03:00,
2013-04-08 17:13:00,25.0,20.0,30.11,NNW,335,10.0,18.0,81,0.00,,,0.00,,2013-04-08 22:13:00,
2013-04-08 17:23:00,24.0,19.0,30.12,North,352,8.0,19.0,81,0.00,,,0.00,,2013-04-08 22:23:00,
2013-04-08 17:32:00,24.0,19.0,30.12,North,352,8.0,19.0,81,0.00,,,0.00,,2013-04-08 22:32:00,
2013-04-08 17:43:00,24.0,19.0,30.14,North,1,10.0,21.0,81,0.00,,,0.00,,2013-04-08 22:43:00,
2013-04-08 17:52:00,23.0,18.0,30.14,NNW,329,10.0,17.0,81,0.00,,,0.00,,2013-04-08 22:52:00,
2013-04-08 18:02:00,23.0,18.0,30.14,NNE,21,8.0,16.0,82,0.00,,,0.00,,2013-04-08 23:02:00,
2013-04-08 18:12:00,23.0,18.0,30.14,NNE,21,8.0,16.0,82,0.00,,,0.00,,2013-04-08 23:12:00,
2013-04-08 18:22:00,23.0,18.0,30.14,NNE,21,8.0,16.0,82,0.00,,,0.00,,2013-04-08 23:22:00,
2013-04-08 18:32:00,22.0,17.0,30.15,NNW,337,9.0,21.0,81,0.00,,,0.00,,2013-04-08 23:32:00,
2013-04-08 18:42:00,22.0,17.0,30.15,NNW,337,9.0,21.0,81,0.00,,,0.00,,2013-04-08 23:42:00,
2013-04-08 18:52:00,22.0,17.0,30.16,NNE,15,11.0,18.0,80,0.00,,,0.00,,2013-04-08 23:52:00,
2013-04-08 19:02:00,22.0,17.0,30.17,North,8,9.0,16.0,82,0.00,,,0.00,,2013-04-09 00:02:00,
2013-04-08 19:12:00,22.0,17.0,30.17,North,8,9.0,16.0,82,0.00,,,0.00,,2013-04-09 00:12:00,
2013-04-08 19:22:00,21.0,16.0,30.18,NNW,341,8.0,15.0,82,0.00,,,0.00,,2013-04-09 00:22:00,
2013-04-08 19:32:00,21.0,16.0,30.19,NNW,342,11.0,18.0,81,0.00,,,0.00,,2013-04-09 00:32:00,
2013-04-08 19:42:00,21.0,16.0,30.19,NNW,342,11.0,18.0,81,0.00,,,0.00,,2013-04-09 00:42:00,
2013-04-08 19:52:00,20.0,15.0,30.19,NNW,336,11.0,18.0,80,0.00,,,0.00,,2013-04-09 00:52:00,
2013-04-08 20:02:00,20.0,15.0,30.19,North,360,7.0,16.0,79,0.00,,,0.00,,2013-04-09 01:02:00,
2013-04-08 20:12:00,20.0,15.0,30.19,North,360,7.0,16.0,79,0.00,,,0.00,,2013-04-09 01:12:00,
2013-04-08 20:22:00,20.0,14.0,30.20,NNW,336,11.0,18.0,77,0.00,,,0.00,,2013-04-09 01:22:00,
2013-04-08 20:33:00,19.0,13.0,30.20,NNE,20,12.0,19.0,76,0.00,,,0.00,,2013-04-09 01:33:00,
2013-04-08 20:42:00,19.0,12.0,30.21,NNE,15,9.0,19.0,75,0.00,,,0.00,,2013-04-09 01:42:00,
2013-04-08 20:52:00,19.0,12.0,30.21,NNE,15,9.0,19.0,75,0.00,,,0.00,,2013-04-09 01:52:00,
2013-04-08 21:02:00,18.0,11.0,30.22,NNE,13,9.0,19.0,75,0.00,,,0.00,,2013-04-09 02:02:00,
2013-04-08 21:13:00,18.0,11.0,30.22,NNE,13,9.0,19.0,75,0.00,,,0.00,,2013-04-09 02:13:00,
2013-04-08 21:22:00,18.0,12.0,30.22,NW,309,7.0,21.0,76,0.00,,,0.00,,2013-04-09 02:22:00,
2013-04-08 21:32:00,18.0,12.0,30.22,NNW,333,11.0,19.0,76,0.00,,,0.00,,2013-04-09 02:32:00,
2013-04-08 21:43:00,18.0,12.0,30.24,NW,319,10.0,16.0,76,0.00,,,0.00,,2013-04-09 02:43:00,
2013-04-08 21:52:00,18.0,12.0,30.24,NW,319,10.0,16.0,76,0.00,,,0.00,,2013-04-09 02:52:00,
2013-04-08 22:02:00,18.0,12.0,30.25,NNW,348,6.0,15.0,77,0.00,,,0.00,,2013-04-09 03:02:00,
2013-04-08 22:12:00,18.0,12.0,30.25,NNW,348,6.0,15.0,77,0.00,,,0.00,,2013-04-09 03:12:00,
2013-04-08 22:21:00,17.0,11.0,30.26,North,11,8.0,15.0,78,0.00,,,0.00,,2013-04-09 03:21:00,
2013-04-08 22:33:00,17.0,11.0,30.27,North,352,10.0,17.0,78,0.00,,,0.00,,2013-04-09 03:33:00,
2013-04-08 22:43:00,17.0,11.0,30.27,North,352,10.0,17.0,78,0.00,,,0.00,,2013-04-09 03:43:00,
2013-04-08 22:52:00,17.0,11.0,30.28,NNW,328,8.0,15.0,78,0.00,,,0.00,,2013-04-09 03:52:00,
2013-04-08 23:03:00,17.0,12.0,30.28,NNE,23,6.0,14.0,79,0.00,,,0.00,,2013-04-09 04:03:00,
2013-04-08 23:13:00,17.0,12.0,30.28,NNE,23,6.0,14.0,79,0.00,,,0.00,,2013-04-09 04:13:00,
2013-04-08 23:23:00,16.0,11.0,30.29,NNW,341,5.0,11.0,79,0.00,,,0.00,,2013-04-09 04:23:00,
2013-04-08 23:32:00,16.0,11.0,30.29,NNW,341,8.0,15.0,79,0.00,,,0.00,,2013-04-09 04:32:00,
2013-04-08 23:42:00,16.0,11.0,30.29,NNW,341,8.0,15.0,79,0.00,,,0.00,,2013-04-09 04:42:00,
2013-04-08 23:52:00,16.0,11.0,30.29,NNW,341,8.0,15.0,79,0.00,,,0.00,,2013-04-09 04:52:00,